Wind_Gust
14 13 13 13 13 14 13 13 12 12 12 11 12 12 12 11 11 11 11 12 13 12 13 14 15 16 17 17 18 18 15 16 14 5 3 19 12 10 11 6 7 9 6 2 4 6 5 6 4 8 8 3 4 2 3 2 3 3 4 9 3 8 3 9 8 12 2 7 14 14 8 4 3 6 7 15 14 10 8 10 5 11 11 8 6 16 16 12
15 14 14 13 13 13 12 12 12 11 11 11 11 12 13 13 12 12 12 12 13 13 14 14 15 16 17 16 17 18 15 10 10 8 23 14 9 12 12 10 9 9 8 4 3 2 2 4 4 6 6 3 3 2 1 4 3 6 5 5 11 7 12 9 8 7 4 11 10 9 9 4 3 4 5 14 6 8 13 6 5 12 10 14 14 16 17 14
14 14 13 13 12 12 12 11 12 12 12 12 12 12 12 12 12 12 12 12 13 13 14 15 15 16 17 17 17 13 14 8 5 8 12 9 18 13 13 12 7 8 3 1 3 6 1 1 1 4 5 3 8 3 4 4 4 6 7 6 11 10 7 9 8 8 8 7 14 9 9 7 4 4 3 9 7 6 14 17 5 10 11 14 12 15 15 15
14 14 14 13 13 13 13 12 12 12 12 12 12 12 12 12 12 13 13 13 13 13 14 15 16 16 17 17 16 13 6 5 3 5 5 8 8 13 11 10 9 7 7 2 5 5 3 6 5 7 4 6 6 2 3 7 6 6 5 9 11 7 5 9 8 12 11 4 9 7 5 6 1 4 8 12 16 3 5 11 22 20 22 19 17 16 16 17
15 14 14 13 13 13 13 12 12 12 12 12 12 12 12 13 13 13 13 13 13 13 14 15 16 17 17 17 16 5 4 7 2 4 7 7 7 12 11 10 11 7 7 6 6 5 7 4 3 5 6 4 3 2 5 3 6 7 10 8 9 2 5 11 7 7 7 4 5 6 2 5 3 6 11 17 18 17 22 21 7 25 26 26 21 17 16 17
14 14 14 14 13 13 13 13 12 12 13 12 12 12 12 13 13 13 13 13 13 13 14 14 15 16 18 18 5 6 2 8 6 6 4 5 5 12 11 11 12 10 6 6 3 1 3 4 6 4 3 3 2 4 6 4 3 8 9 5 9 8 8 7 3 6 3 8 6 4 4 6 5 7 8 5 6 7 7 5 11 19 29 29 25 24 19 17
14 14 14 14 14 13 13 13 13 13 13 13 13 13 13 13 13 13 13 13 13 13 14 14 15 16 15 13 5 2 2 14 4 10 9 8 7 14 14 12 13 9 6 6 2 2 1 4 5 2 4 1 4 7 9 2 2 4 12 3 9 6 10 11 9 7 5 4 11 6 2 4 9 6 10 7 5 7 5 10 9 7 8 18 23 18 24 21
14 14 14 14 14 14 14 13 13 13 13 13 13 13 13 13 12 13 13 13 13 13 14 14 14 14 13 8 3 4 3 9 8 4 9 12 12 16 16 8 10 8 6 5 6 3 3 4 3 3 3 3 4 5 2 2 1 5 9 5 8 3 9 9 10 11 6 10 11 8 6 5 10 12 9 8 6 4 4 13 13 13 11 10 13 16 14 12
15 15 14 14 14 14 14 14 14 14 13 13 13 13 13 13 13 13 13 13 13 13 13 13 14 13 10 2 3 4 5 9 5 4 8 11 11 11 12 8 4 9 6 5 5 7 5 6 3 7 3 2 3 2 4 2 11 8 10 3 7 10 9 9 10 12 4 8 5 4 4 4 3 3 10 4 4 3 10 14 14 15 13 14 13 11 14 13
15 15 14 14 14 14 14 14 13 13 13 13 13 13 13 13 13 12 13 13 13 12 13 13 12 14 5 3 3 6 4 4 4 7 8 12 10 11 11 10 9 10 8 3 4 6 8 9 5 5 2 4 1 6 1 4 8 5 4 6 9 15 8 8 7 8 3 7 4 8 3 4 3 6 9 2 3 7 15 14 11 16 16 12 10 9 7 14
15 15 15 15 15 15 14 14 14 14 13 13 12 12 13 12 13 12 12 12 12 11 11 11 11 11 4 2 4 4 5 6 2 5 9 9 12 12 8 10 8 12 7 3 7 11 4 9 4 5 2 6 2 7 5 7 2 4 7 6 10 10 8 8 4 9 2 5 7 8 4 1 2 3 9 8 8 11 19 15 15 13 14 14 9 9 6 8
16 15 15 14 14 14 14 14 14 14 13 13 12 11 11 11 12 12 11 11 12 11 10 9 9 9 5 1 4 13 4 4 5 6 9 8 8 6 4 9 11 11 11 8 10 10 9 6 4 4 6 3 7 3 4 5 2 5 1 7 11 11 7 6 3 5 3 5 7 6 3 3 3 6 7 5 7 12 16 17 15 15 12 9 9 9 9 12
16 15 15 14 14 14 14 14 14 15 14 14 13 12 11 10 10 11 11 10 9 8 7 8 7 5 2 5 15 12 3 2 8 7 4 2 3 1 6 5 7 7 11 6 6 5 7 7 3 2 6 2 3 8 3 3 5 3 5 4 9 11 8 7 5 6 2 4 4 3 9 12 12 7 8 8 12 10 12 10 11 10 9 9 9 11 9 7
16 15 15 14 14 14 14 15 15 15 14 14 13 13 11 10 10 9 10 10 10 10 9 7 1 5 2 10 12 6 4 3 6 6 5 3 2 5 3 4 7 6 3 6 6 7 7 7 6 6 3 4 8 5 7 12 8 7 6 10 3 3 4 10 5 9 3 4 6 3 8 14 9 10 3 5 11 20 16 10 9 9 9 9 9 9 11 9
17 17 16 15 14 14 15 15 15 15 15 14 14 13 11 11 11 10 10 9 9 9 6 4 3 2 2 16 9 11 8 6 4 8 10 9 5 4 4 3 6 10 9 6 4 2 7 8 4 3 8 4 3 5 7 9 10 6 6 6 10 5 8 15 7 3 7 7 8 6 6 13 6 6 7 7 9 11 18 14 11 11 10 10 9 10 9 11
18 17 16 15 14 14 14 14 15 15 15 15 15 14 14 14 11 9 8 8 7 7 4 4 4 3 3 11 7 6 7 2 5 9 6 10 8 8 5 8 2 2 1 7 7 5 2 5 2 6 5 2 8 7 8 13 10 10 6 3 2 3 3 7 2 6 4 6 6 5 15 10 7 5 9 7 15 12 16 15 15 12 10 11 10 11 9 10
19 18 17 16 15 14 14 14 14 15 15 14 16 15 14 12 9 5 4 5 5 4 2 3 2 3 4 8 5 2 5 6 4 2 4 7 11 8 4 3 2 4 1 8 4 6 2 5 6 4 10 7 3 5 3 10 8 7 5 4 2 2 4 5 13 4 8 2 5 4 7 9 3 6 6 7 11 10 12 15 13 13 13 12 10 10 12 14
20 19 18 17 15 14 14 14 13 13 14 13 13 12 7 3 6 7 5 3 2 2 5 5 3 4 15 8 4 5 5 10 7 6 3 4 8 2 2 4 2 8 7 6 4 3 3 5 11 4 6 8 7 8 7 7 7 4 3 5 4 2 2 3 5 6 8 6 5 5 3 17 4 6 5 3 2 9 15 18 18 17 12 8 7 6 6 12
20 19 19 17 16 14 14 13 13 12 12 12 10 8 8 8 6 1 3 2 3 5 6 3 3 5 10 4 6 8 8 10 4 2 3 6 3 5 4 4 7 4 7 8 7 3 8 6 9 9 6 7 5 8 12 9 7 5 7 2 3 3 2 7 6 6 4 4 2 1 8 7 6 3 4 5 4 10 9 2 2 2 4 5 7 8 10 13
21 20 19 17 15 14 13 12 10 10 9 7 6 5 4 9 10 6 3 2 6 8 8 8 5 7 10 13 9 7 7 7 2 3 2 2 12 4 2 2 2 9 4 3 9 4 4 4 4 6 11 12 6 7 6 4 7 5 6 7 3 3 7 7 7 6 2 3 1 4 5 5 4 6 6 8 6 5 4 8 7 6 8 10 11 15 14 15
21 20 19 17 15 13 12 11 9 6 6 3 3 3 8 5 7 13 14 13 9 6 8 10 14 10 14 7 4 8 13 8 3 2 1 5 8 8 4 3 6 3 2 1 4 6 9 4 8 12 13 9 6 5 3 6 2 4 6 2 2 3 1 3 3 4 9 4 3 3 4 6 8 6 7 3 6 15 15 11 9 9 8 10 13 14 14 10
20 19 18 17 15 13 12 10 7 7 3 6 3 7 5 3 3 5 5 19 9 11 11 11 2 9 8 11 5 5 4 6 13 10 7 5 2 5 4 6 4 5 4 2 6 11 8 5 14 11 6 4 3 5 5 5 5 4 3 4 3 7 7 13 4 5 5 2 9 4 6 9 7 8 5 10 14 13 17 16 17 16 12 13 14 13 9 9
20 18 17 16 15 12 11 9 4 5 2 2 4 3 4 5 2 4 3 7 16 5 5 3 4 7 11 8 5 10 4 8 11 8 8 6 2 5 6 3 3 1 2 2 4 2 8 11 9 4 8 5 3 4 6 6 6 6 4 2 6 6 4 12 8 6 8 7 5 3 5 14 12 9 11 8 12 8 8 13 16 17 21 20 22 22 20 18
19 18 17 15 14 11 9 7 7 3 2 1 2 3 3 3 1 2 3 8 11 13 5 9 5 6 9 6 10 10 8 7 5 7 5 12 10 4 6 6 3 2 3 2 6 9 13 11 5 7 5 5 2 2 5 4 6 3 2 3 3 2 3 8 8 8 6 3 3 3 9 16 7 5 6 4 2 4 4 4 6 9 11 13 9 6 15 22
19 18 16 14 12 11 8 6 2 2 3 2 4 8 3 4 5 2 4 12 7 12 4 2 4 7 10 4 5 6 5 3 11 5 5 11 6 4 3 5 5 5 4 4 6 2 14 10 5 2 2 1 4 2 7 10 3 6 8 9 8 3 3 3 4 6 15 10 8 4 11 14 11 9 11 11 11 4 3 2 10 12 10 5 9 18 17 16
18 17 14 13 12 11 8 4 2 2 1 3 3 3 4 5 3 3 15 9 6 10 9 3 4 5 5 3 4 4 7 8 9 10 8 10 10 9 5 3 4 3 3 5 7 10 8 3 2 3 4 2 3 6 6 9 8 3 12 11 6 5 4 4 1 4 4 6 6 4 8 18 13 6 5 6 5 10 7 6 10 7 9 10 16 17 16 20
18 15 13 11 9 10 4 4 2 1 3 5 4 6 5 5 2 5 9 14 7 5 4 7 4 10 9 2 8 3 8 9 9 2 3 5 10 2 7 9 4 3 6 8 12 10 2 6 5 7 6 4 2 4 8 13 12 9 5 8 8 7 4 6 5 7 8 4 5 7 9 9 12 14 5 7 7 10 11 9 8 8 9 11 13 16 16 21
17 15 12 10 8 5 1 4 4 2 3 4 6 7 5 1 6 8 15 7 13 6 6 6 6 4 3 3 6 7 4 3 9 2 1 2 4 5 5 7 10 8 4 4 9 11 2 6 3 4 5 3 5 10 6 11 14 10 3 9 8 7 6 6 7 5 3 2 12 10 2 7 10 15 10 4 5 8 10 11 11 13 7 10 13 18 20 23
17 14 11 7 7 5 4 2 2 3 2 5 7 6 5 7 10 14 11 11 11 10 12 5 8 3 7 3 3 3 4 3 3 3 4 5 6 7 5 6 6 3 2 5 15 8 9 9 3 5 4 7 9 6 12 15 9 5 7 10 11 10 8 6 6 7 3 7 9 6 4 11 15 12 12 6 3 8 11 10 12 12 8 13 14 12 18 21
17 13 11 5 4 2 3 2 6 3 3 5 7 4 6 8 10 6 7 4 9 5 4 8 7 6 3 1 4 6 4 7 4 7 6 8 6 5 4 6 6 2 4 7 4 14 8 7 7 7 8 10 5 1 7 5 4 6 7 9 8 13 7 7 11 7 7 5 12 13 4 6 14 9 12 9 7 8 7 10 9 9 12 13 14 16 15 17
17 14 9 3 2 2 2 7 6 2 5 7 7 7 8 16 11 9 4 12 6 9 8 5 6 8 6 3 6 6 2 3 8 5 5 4 4 7 3 5 11 11 6 8 8 10 9 4 5 10 4 5 4 5 4 3 2 4 4 4 7 2 12 6 9 8 6 12 12 5 5 5 10 11 9 11 8 8 9 10 12 13 14 15 14 15 15 13
16 13 8 9 6 1 2 6 2 1 6 4 9 10 7 7 8 3 7 7 9 10 4 8 3 6 7 3 6 10 8 7 5 7 4 5 2 7 7 10 6 4 8 2 6 9 6 9 6 10 6 7 5 5 3 6 7 10 8 11 5 9 12 9 8 9 10 14 3 2 4 4 10 16 7 13 11 8 6 7 7 8 11 13 14 12 11 8
17 11 6 11 3 2 8 5 3 5 5 9 10 8 10 10 6 8 5 8 7 3 7 3 4 5 2 5 9 7 4 5 7 3 3 4 4 8 4 5 8 8 13 7 4 8 14 8 5 7 6 4 7 7 5 3 5 6 6 8 9 6 6 8 10 7 10 12 6 3 4 7 10 12 5 6 10 7 7 7 6 3 6 10 11 9 9 8
17 6 4 8 11 10 6 2 3 5 5 9 7 5 14 5 6 7 2 6 3 2 3 6 7 5 8 6 3 7 7 1 7 13 4 4 6 5 9 5 3 2 4 4 9 5 6 17 11 3 6 5 5 11 16 12 8 13 8 15 14 15 16 12 11 12 12 10 5 4 4 12 4 7 3 6 8 9 6 5 3 3 6 7 10 14 13 10
15 4 4 2 4 10 14 9 3 4 10 9 16 12 7 10 5 4 4 5 7 4 3 4 3 3 3 6 6 4 3 5 7 6 8 5 5 3 3 3 5 7 4 6 9 5 5 14 13 6 3 4 6 2 7 8 6 2 6 10 10 13 13 14 12 8 5 5 5 6 11 8 8 4 7 4 6 7 6 4 1 4 6 8 21 20 16 13
5 4 2 4 3 4 1 4 5 6 9 14 12 7 5 10 4 6 5 5 2 3 7 6 7 7 3 5 4 4 6 3 8 7 4 5 2 4 2 4 7 4 7 10 9 8 7 9 4 12 4 4 3 3 3 8 10 8 8 10 9 8 15 11 3 4 5 9 14 6 12 7 15 5 5 6 3 4 5 5 10 10 8 15 17 14 14 14
10 8 3 5 4 6 3 4 5 9 13 14 11 4 9 8 8 5 7 4 4 3 5 7 10 3 5 5 4 8 7 6 4 9 9 3 3 5 7 3 2 4 3 6 7 9 7 12 6 5 2 3 4 3 5 6 8 16 5 9 5 5 9 11 11 7 6 9 18 4 10 5 6 13 5 2 3 5 6 7 5 8 10 17 10 11 11 13
8 4 2 4 5 7 4 2 6 13 11 9 3 6 3 3 3 2 4 5 3 5 4 3 8 4 5 3 8 3 8 8 12 7 5 3 5 4 5 9 5 8 8 2 8 6 5 11 11 2 4 9 10 3 9 3 3 7 8 6 6 11 6 9 9 8 8 12 13 7 3 8 10 12 5 6 6 2 5 5 11 14 13 10 10 10 9 10
4 5 3 4 7 9 3 4 14 8 8 7 4 4 5 8 3 3 5 5 3 4 3 6 4 4 4 3 6 3 3 8 4 2 5 6 8 6 6 2 4 6 6 3 5 3 6 7 15 6 2 7 6 8 8 8 9 5 4 7 2 11 6 5 11 9 9 8 5 13 3 15 14 13 14 9 5 3 1 6 8 6 6 7 7 9 10 11
11 8 5 1 9 10 2 5 8 11 8 3 5 8 5 4 4 5 4 6 7 3 5 2 2 4 3 4 4 3 4 2 2 3 2 6 4 4 12 8 4 13 5 3 4 2 3 2 8 9 6 3 6 6 4 6 2 7 9 5 5 8 4 10 4 6 9 13 10 10 12 14 11 8 7 9 8 6 5 6 3 4 5 5 5 6 8 8
5 5 9 7 17 10 8 17 11 3 3 3 2 5 4 6 7 4 8 4 6 3 3 4 5 7 7 4 4 2 4 2 3 5 7 3 3 9 5 8 6 8 8 8 11 6 5 4 9 10 12 5 8 6 3 5 5 5 6 6 10 8 6 5 17 5 6 11 15 10 20 17 15 6 3 7 7 5 4 6 3 1 3 5 6 6 5 7
8 8 6 8 14 8 9 5 5 2 3 5 4 4 7 7 4 5 5 5 4 6 4 5 1 4 4 4 6 3 5 4 4 3 4 6 2 4 5 7 7 3 6 7 3 3 4 7 4 8 11 10 6 6 3 3 3 3 6 4 4 6 9 10 12 12 5 9 9 10 7 13 7 4 4 5 4 5 2 1 2 1 1 3 5 5 5 5
10 9 11 7 13 4 11 5 4 5 3 6 7 3 4 5 4 4 4 5 8 4 6 4 4 3 5 5 3 3 4 9 7 7 3 3 4 3 9 9 5 5 6 8 4 2 6 8 5 9 11 11 8 4 4 6 6 4 5 2 3 6 7 11 11 10 10 4 7 7 13 17 7 2 1 1 4 5 5 2 3 4 4 2 3 4 6 8
6 9 13 8 12 7 9 11 4 2 7 7 3 6 4 6 3 7 4 4 6 6 3 5 3 3 3 2 3 5 4 9 4 2 4 2 6 6 9 12 8 10 7 4 4 7 7 10 6 7 12 15 16 14 8 7 10 5 5 3 2 5 7 4 8 3 8 9 10 11 20 9 7 6 5 4 4 6 6 3 1 2 5 4 4 4 4 5
11 7 4 17 19 15 9 5 5 4 3 5 6 7 9 5 4 3 3 5 3 3 3 5 4 3 4 2 4 4 5 3 10 4 2 2 4 4 9 12 9 7 4 4 5 3 5 7 6 9 12 14 15 10 14 7 5 6 3 4 2 3 5 3 5 5 9 7 5 12 14 16 13 8 6 6 5 6 4 4 4 3 4 3 4 5 7 7
9 9 14 14 22 15 12 3 7 4 3 4 5 7 2 6 8 6 3 4 1 2 3 4 3 6 5 3 4 5 4 4 5 7 4 6 5 7 4 8 7 6 7 13 7 3 6 4 5 12 14 15 16 13 8 3 4 8 3 2 6 2 3 4 9 7 12 10 8 12 6 4 4 9 8 9 7 6 8 9 4 3 3 4 3 5 5 5
5 8 8 12 15 14 4 8 6 7 3 2 6 5 4 3 7 10 3 5 4 3 5 7 4 4 4 5 3 3 2 3 5 2 3 2 5 6 7 3 4 11 12 9 11 9 5 5 6 6 8 12 10 9 5 6 7 6 5 7 7 4 5 8 11 15 9 5 19 11 9 10 15 12 11 13 11 8 6 5 7 5 3 3 5 5 7 5
8 3 4 2 3 8 10 8 9 5 5 1 6 4 4 5 7 6 10 3 2 7 4 5 9 5 3 4 5 7 3 3 4 5 2 2 4 8 8 6 6 10 9 6 6 6 5 6 3 3 6 6 4 8 5 3 6 8 7 6 7 7 4 10 10 10 8 11 22 9 11 12 10 9 12 13 9 8 8 9 7 5 3 4 5 4 6 6
8 4 2 4 3 4 3 5 4 1 2 2 5 6 5 6 6 4 5 10 9 7 5 4 3 3 3 2 3 5 3 5 6 3 6 2 1 6 9 6 2 7 9 7 8 3 6 7 4 2 6 6 6 4 4 4 5 4 7 9 10 6 12 11 11 6 15 13 16 13 9 17 13 9 12 15 5 3 6 5 6 2 1 2 1 3 4 5
10 7 7 10 4 2 4 4 3 4 5 9 3 5 4 4 5 9 5 3 7 5 3 6 2 3 4 2 4 5 6 7 4 4 3 2 5 3 5 6 8 6 6 6 4 4 4 13 4 3 6 8 6 6 3 5 4 10 9 9 7 7 8 10 9 7 5 12 12 8 10 19 13 10 15 11 6 2 1 2 3 3 2 2 3 2 3 4
5 2 3 5 8 7 4 5 4 3 3 10 8 5 5 5 2 3 7 2 1 4 4 1 1 1 3 2 2 3 4 6 5 5 7 7 4 9 6 11 4 6 8 7 4 7 4 11 3 6 9 12 6 5 9 4 4 9 12 7 9 8 11 10 18 15 11 15 10 5 10 21 14 11 8 7 6 3 5 4 2 2 2 2 5 5 6 6
5 2 3 4 4 7 4 4 2 4 3 2 4 4 5 6 5 4 5 4 4 5 2 3 1 2 3 3 3 4 9 6 9 10 10 11 3 2 3 5 7 3 6 7 3 7 8 7 7 4 9 15 7 7 5 4 10 21 16 13 20 17 17 11 7 4 13 11 11 12 20 10 8 5 7 5 2 2 2 6 2 1 1 1 2 4 5 6
Wind_Speed
11 10 10 10 10 10 10 9 9 9 9 9 9 9 9 9 9 9 8 9 10 9 10 11 12 12 13 13 14 15 12 8 9 2 0 11 8 6 9 5 5 7 5 1 3 3 2 3 2 5 3 2 2 1 1 0 1 1 1 4 0 3 1 4 4 6 1 2 6 8 5 2 1 3 1 6 9 6 5 7 2 6 6 3 3 10 11 8
10 10 10 10 10 9 9 9 9 8 8 9 9 9 10 10 9 9 9 9 10 10 11 11 12 12 13 13 14 14 10 6 6 5 14 8 7 10 9 8 8 8 6 3 2 1 1 2 2 3 3 1 2 0 0 0 0 2 2 2 5 3 5 5 4 5 1 6 6 5 4 2 1 3 0 5 3 5 7 3 3 7 5 9 9 11 12 9
10 10 10 9 9 9 9 9 9 9 10 9 9 9 9 9 9 9 9 9 10 10 11 12 12 13 13 13 13 11 9 4 2 4 5 6 14 10 11 10 6 6 2 1 2 3 0 1 0 2 3 1 4 1 2 0 1 2 3 2 5 6 4 6 5 5 5 3 9 6 4 1 3 1 0 4 3 3 8 8 3 5 6 8 7 10 10 10
10 10 10 9 9 10 10 10 9 9 9 9 9 9 9 9 10 10 10 10 10 10 11 12 12 13 13 14 13 7 3 3 0 1 3 6 4 11 9 9 7 5 4 1 3 3 2 3 4 4 1 3 3 1 0 2 1 1 2 3 4 3 1 5 6 8 7 3 5 5 3 1 1 2 3 7 9 0 2 6 13 13 12 12 11 10 10 11
11 10 10 10 9 9 9 9 9 9 9 9 9 9 9 10 10 10 10 10 10 10 11 12 12 13 13 13 13 2 1 2 0 2 4 6 4 10 9 9 9 5 4 4 4 3 5 2 1 3 3 0 2 1 2 1 2 3 5 5 5 1 3 7 5 6 4 3 4 4 1 3 2 3 6 10 10 8 9 11 4 12 16 16 13 11 9 11
11 10 10 10 10 10 9 10 10 10 10 10 9 9 9 10 10 10 10 10 10 10 11 11 12 13 14 14 3 3 0 3 1 2 3 4 4 10 9 9 9 7 5 4 2 1 2 3 3 2 1 1 0 1 2 1 0 3 3 3 6 5 4 3 1 4 2 2 4 2 2 1 3 4 5 3 3 2 4 2 4 11 19 18 15 15 12 12
11 11 11 11 10 10 10 10 10 10 10 10 10 10 10 10 10 10 10 10 10 10 11 11 11 13 12 10 2 1 1 4 2 5 5 6 6 12 11 10 10 6 4 4 1 0 1 2 3 1 2 0 2 2 5 0 1 2 4 1 6 3 6 6 5 4 4 4 6 2 1 1 5 4 4 3 2 4 3 6 6 5 4 12 14 12 16 14
11 11 11 11 11 11 11 10 10 10 10 10 10 10 10 9 9 9 10 10 10 10 11 11 11 11 11 4 1 2 1 3 3 3 6 9 10 12 12 6 7 5 4 3 3 1 2 2 2 1 1 1 1 3 1 0 0 3 3 3 4 1 5 6 6 7 4 7 7 6 3 4 5 4 6 5 3 3 3 9 9 8 7 5 8 11 9 8
12 11 11 11 11 11 11 11 11 11 10 10 10 10 10 10 10 9 10 10 10 10 10 10 11 10 8 0 1 2 1 4 4 3 7 8 9 9 9 3 3 6 3 3 3 4 4 2 1 4 1 1 1 1 3 1 4 4 6 0 4 5 6 6 6 8 3 4 3 1 3 2 2 1 5 1 2 2 6 10 10 9 8 8 8 8 10 9
12 11 11 11 11 11 11 11 10 10 10 10 10 10 10 10 9 9 9 10 9 9 9 10 9 11 2 1 1 3 1 4 3 4 6 9 8 8 8 7 6 6 4 2 2 4 4 4 3 4 1 1 0 3 0 3 3 3 3 4 6 10 4 4 4 2 2 3 3 5 2 1 1 2 3 0 1 5 10 10 7 11 10 8 7 6 5 8
12 12 12 12 12 12 11 11 11 11 11 10 9 9 9 9 9 9 8 9 8 8 8 8 8 8 2 1 2 1 3 5 1 4 7 7 9 8 5 6 6 5 5 3 4 6 3 6 2 3 0 1 0 4 3 3 1 2 4 4 6 6 5 5 3 6 0 1 5 5 1 0 1 1 2 2 4 7 13 10 10 9 9 8 6 6 4 5
12 12 11 11 11 11 11 11 11 11 11 10 10 9 9 8 8 8 8 7 8 8 7 6 7 3 2 0 2 5 1 3 3 4 6 5 4 4 3 6 6 7 7 5 6 5 3 3 2 2 1 1 3 1 1 3 0 2 1 4 7 7 3 4 1 3 0 1 3 3 2 1 1 3 4 2 4 6 10 11 11 10 8 6 5 6 6 7
12 12 11 11 11 11 11 11 11 12 12 11 11 10 9 8 7 7 7 7 6 5 5 6 5 2 1 2 7 8 2 2 5 6 3 1 2 1 3 3 4 4 7 4 2 3 5 4 2 0 2 0 1 1 0 1 3 1 3 1 6 6 4 5 2 3 1 1 1 1 3 5 7 4 5 4 8 6 8 5 6 6 6 5 6 6 5 4
13 12 11 11 11 11 11 12 12 12 12 11 11 10 9 8 8 7 6 6 6 6 6 5 1 1 0 4 6 4 2 2 4 5 3 2 1 1 2 2 4 3 1 4 2 4 5 4 4 3 1 2 3 3 3 5 4 2 3 5 1 2 1 6 2 6 1 0 4 2 3 6 5 6 2 4 7 13 10 6 5 6 6 6 6 6 7 6
13 12 12 11 11 11 11 12 12 12 12 12 11 11 9 9 8 7 7 6 6 5 3 2 1 0 0 6 5 7 4 3 1 5 7 5 3 1 2 2 3 5 3 2 0 1 4 5 3 0 2 1 0 2 3 3 5 2 2 2 4 3 3 9 2 2 0 3 6 3 2 7 2 4 4 5 6 7 11 9 7 7 6 7 6 6 6 7
13 12 12 11 11 11 11 11 12 12 12 12 12 11 11 10 8 6 5 5 4 4 2 2 1 1 1 3 2 4 3 0 2 3 4 7 6 4 3 6 0 0 1 3 2 1 0 3 0 2 1 0 3 3 4 6 3 5 3 1 1 2 2 3 2 5 3 2 4 3 5 5 2 2 4 3 7 8 10 8 9 7 7 7 7 7 6 6
14 13 12 12 11 10 11 11 11 12 12 11 13 11 10 8 6 3 2 3 2 0 0 1 1 1 1 2 0 0 1 2 2 1 2 4 7 4 3 1 0 2 0 4 2 4 0 2 1 1 5 3 1 3 1 4 3 2 2 2 1 1 1 1 8 3 6 2 3 2 1 4 2 3 4 2 3 6 8 9 7 8 8 7 6 5 6 7
15 14 13 12 11 10 10 10 10 10 11 10 10 9 3 2 5 5 3 1 0 0 2 2 1 2 6 3 1 2 1 5 3 1 1 1 4 2 1 1 1 4 3 2 1 1 1 1 5 2 3 4 3 4 3 2 2 1 1 1 1 1 1 2 1 2 4 3 2 3 1 8 3 3 4 2 1 5 9 11 11 10 7 4 3 2 3 5
15 15 14 12 11 10 10 10 9 9 9 9 7 7 7 6 3 0 1 0 0 1 1 0 0 1 3 1 4 6 3 5 0 1 0 3 1 3 2 2 4 2 3 3 2 1 3 2 4 4 3 3 2 4 5 4 4 3 4 1 2 1 0 3 2 3 2 1 0 0 2 3 2 0 3 3 1 5 3 0 1 2 3 4 5 5 6 7
16 15 14 13 11 10 9 9 8 7 7 4 3 2 1 2 3 1 1 1 2 4 4 5 2 3 6 7 4 3 5 6 1 1 2 0 6 3 1 0 1 5 2 0 4 2 1 2 1 3 6 6 4 4 3 2 4 3 4 4 2 2 3 4 3 3 1 0 0 0 3 3 2 4 4 5 2 2 3 5 4 4 5 5 5 7 7 7
16 15 14 13 11 9 8 8 7 5 4 0 0 1 3 0 2 3 6 6 5 4 5 6 8 6 5 2 1 3 5 3 2 1 0 3 5 5 1 1 3 1 1 0 1 3 3 2 4 7 8 6 4 3 2 4 1 2 4 2 1 2 0 2 1 3 5 1 2 0 2 4 4 3 5 1 3 8 8 7 6 5 5 5 6 8 9 5
16 15 14 13 10 9 8 6 5 5 2 3 1 2 2 1 1 2 1 6 5 7 7 7 1 4 4 6 2 4 3 2 6 4 3 3 1 1 2 2 2 2 1 1 2 4 3 2 8 7 3 1 2 3 3 3 3 2 2 2 1 2 4 8 2 3 3 1 5 3 4 5 3 2 2 3 9 7 9 10 11 10 8 8 9 8 6 5
15 14 13 12 10 8 7 6 1 3 1 1 1 2 0 2 1 3 1 1 7 2 3 1 3 4 6 2 1 6 2 3 4 4 3 3 1 2 2 2 2 1 0 1 2 1 4 5 5 1 6 4 2 3 4 4 3 3 2 1 3 2 2 4 3 4 4 2 2 2 3 7 7 5 2 5 4 4 5 7 8 8 12 13 14 14 12 12
15 14 12 11 9 8 6 4 5 2 1 1 1 1 0 1 1 1 1 2 4 7 2 4 3 3 4 0 3 5 4 2 2 3 3 4 5 2 3 4 2 0 1 1 4 4 7 5 4 4 4 3 1 1 3 2 3 1 1 1 0 0 1 4 3 4 3 1 2 2 4 7 4 1 2 2 1 2 3 1 4 6 7 5 2 3 9 14
15 14 12 10 8 7 5 3 1 1 2 1 2 4 2 2 2 1 2 3 1 3 3 0 2 3 4 1 2 2 2 0 6 2 1 6 3 2 1 1 2 2 3 3 4 0 8 6 3 1 1 1 3 1 4 6 1 2 4 6 5 2 2 2 3 3 6 3 4 3 3 3 4 5 6 6 4 1 1 1 7 8 5 3 6 11 9 10
15 14 11 9 8 8 4 1 0 1 0 1 0 1 2 3 1 2 6 3 2 3 4 1 0 1 1 0 0 1 4 1 4 4 3 5 5 3 1 0 1 1 2 3 3 3 3 1 1 0 2 2 1 3 3 6 4 1 5 7 4 3 3 3 0 2 1 0 2 2 3 4 6 2 1 1 4 6 3 4 6 5 4 5 9 9 9 12
14 12 10 9 7 7 1 1 0 0 1 1 2 4 4 3 1 3 1 5 2 0 0 2 1 0 3 1 2 2 1 2 3 1 1 1 3 0 2 3 1 2 3 2 4 3 0 3 4 4 3 3 2 2 3 8 7 2 2 6 6 5 3 4 3 4 3 1 2 4 3 2 3 7 2 4 4 5 6 6 3 4 5 5 7 9 9 11
14 12 9 8 6 3 0 1 2 0 1 1 3 4 4 1 3 3 3 1 1 2 1 1 1 1 0 0 4 2 2 1 3 1 1 0 2 2 1 4 5 4 2 2 4 5 1 2 1 2 3 2 2 4 4 7 6 3 2 6 5 4 4 4 3 3 0 0 6 5 1 0 3 7 5 2 2 5 7 7 7 4 4 6 8 10 12 14
14 11 9 6 4 2 1 0 1 1 1 3 4 4 1 4 5 5 3 1 1 0 2 1 2 1 3 2 1 1 1 1 0 1 2 3 3 2 0 2 3 2 1 3 7 3 2 5 2 3 2 3 5 3 7 10 3 2 5 6 7 6 5 3 4 4 1 2 4 3 1 2 6 5 6 3 0 4 5 5 7 3 5 5 6 7 10 12
14 10 9 3 0 0 1 0 3 1 2 3 3 1 3 2 2 1 1 0 0 1 0 2 1 2 1 0 1 3 0 2 1 3 3 2 2 3 1 3 3 1 1 3 1 8 3 5 5 3 3 4 2 0 4 1 2 4 4 5 4 8 4 3 6 3 3 0 5 7 2 3 4 3 6 4 1 2 4 6 4 5 8 8 9 10 9 9
14 10 7 2 0 0 0 2 2 1 2 3 3 3 3 7 2 3 0 2 1 3 2 2 1 4 3 2 2 3 1 1 4 2 1 1 2 4 0 1 5 4 2 3 3 6 5 2 0 2 2 1 3 3 2 1 1 3 1 2 4 1 6 3 4 4 1 3 6 2 3 3 4 4 4 5 4 4 5 7 8 9 8 9 9 10 10 7
13 10 6 5 2 0 1 2 1 0 3 2 5 5 3 3 3 0 1 4 1 3 2 3 1 1 4 2 4 4 3 2 3 2 0 1 0 0 1 5 2 1 3 0 2 4 3 4 2 7 3 5 1 3 1 3 3 6 4 5 1 3 4 2 2 2 3 5 0 1 0 1 4 7 4 7 5 6 4 4 4 4 7 9 9 8 7 5
14 10 4 6 1 0 4 2 1 3 3 5 5 3 2 3 1 2 1 2 1 1 1 2 1 3 1 2 4 4 2 3 3 1 1 2 0 3 1 1 2 2 4 2 1 4 6 3 3 4 3 2 3 3 1 1 1 4 2 3 3 0 1 2 3 1 4 5 3 2 2 1 4 6 2 2 5 4 4 3 3 2 4 6 8 6 6 5
14 3 2 4 5 5 3 1 2 4 2 5 2 2 7 2 1 4 1 1 0 1 2 2 3 2 5 2 1 3 3 0 4 4 2 1 3 2 3 3 2 1 1 2 1 1 2 7 5 1 1 2 1 5 9 5 4 5 3 8 7 6 4 3 3 4 6 4 2 2 2 3 2 3 1 3 4 4 4 3 2 3 4 5 4 6 8 7
10 2 2 1 1 5 8 5 2 2 5 3 8 4 2 3 2 1 1 2 2 1 1 2 0 2 1 3 4 2 1 1 3 3 4 3 2 0 1 1 2 3 2 1 2 2 2 5 6 4 1 2 2 0 4 5 3 0 2 5 5 5 6 4 4 3 1 1 1 1 3 3 3 1 3 2 3 4 4 3 1 3 4 4 11 12 10 8
2 2 1 1 1 1 1 1 3 3 3 6 4 2 1 3 1 2 0 2 0 0 3 3 4 3 1 2 1 2 5 1 4 2 1 3 0 1 0 1 2 1 2 2 3 2 2 1 2 8 3 2 3 0 1 3 1 2 4 4 4 3 8 6 2 2 3 4 4 1 5 3 6 2 4 3 2 2 3 1 2 4 5 8 9 9 9 8
5 4 1 3 2 4 2 2 2 4 6 6 4 1 2 2 3 2 2 1 2 2 2 2 2 1 1 1 1 5 3 3 1 3 3 0 1 2 3 1 1 0 1 2 2 3 2 4 3 3 0 1 2 2 4 4 3 6 1 3 1 2 4 4 3 2 3 3 6 1 5 1 2 2 2 1 1 1 2 3 2 4 5 10 6 6 7 8
3 2 0 1 2 4 1 1 2 6 4 3 1 4 1 0 1 1 1 2 1 2 1 1 2 4 1 0 2 0 3 3 6 2 1 1 1 1 2 2 3 4 5 0 2 2 2 3 4 1 1 6 6 1 4 2 1 2 2 3 1 2 1 3 3 0 1 2 2 1 1 3 5 4 1 5 3 1 3 4 4 8 8 7 6 6 6 7
1 2 0 1 4 6 2 2 6 3 2 2 1 1 1 3 1 0 2 2 1 2 0 2 1 1 2 1 2 1 1 1 1 0 1 1 2 2 2 0 2 4 4 2 2 0 2 1 5 2 0 3 3 3 2 2 3 3 2 3 0 3 2 1 3 3 4 2 1 4 2 4 5 4 7 6 4 1 1 2 5 4 4 4 4 5 5 6
5 2 1 0 6 6 1 2 2 5 3 0 2 2 2 1 1 3 3 1 1 1 1 0 1 0 0 2 2 0 1 1 1 1 0 1 1 2 4 5 0 7 4 1 2 1 0 1 1 2 4 2 1 2 1 2 0 2 3 2 1 2 1 4 1 1 2 3 4 2 3 4 3 4 4 6 5 3 3 2 2 3 4 4 4 4 4 5
1 1 2 3 11 6 3 8 4 1 1 0 1 1 2 1 2 1 5 2 1 1 1 2 2 2 2 1 2 0 0 0 0 1 2 0 1 1 1 2 2 3 3 3 6 2 2 1 3 4 5 1 4 2 1 2 1 1 3 2 4 4 2 1 6 2 1 2 3 3 6 7 6 3 2 5 4 3 2 2 2 1 2 4 4 4 4 5
3 2 1 4 9 4 3 1 1 0 1 2 1 0 1 3 1 3 2 2 3 1 2 2 0 1 1 1 2 1 2 0 1 0 1 3 1 1 1 5 4 2 1 0 1 1 1 2 1 3 4 4 2 2 1 1 1 1 2 1 2 2 4 4 2 4 1 1 4 4 1 4 2 2 3 4 3 3 2 0 1 1 1 2 3 3 3 2
4 3 6 5 8 2 3 2 1 1 0 1 4 1 1 1 1 1 1 2 3 1 1 1 2 0 2 1 0 0 2 1 4 2 1 2 2 0 5 7 4 3 2 2 2 0 3 1 1 4 6 6 4 2 3 4 4 1 2 1 1 2 2 4 4 4 4 1 1 1 1 4 2 1 1 0 2 4 3 2 1 1 2 1 2 3 4 6
2 2 5 4 7 3 3 3 1 0 2 4 2 3 2 2 0 2 0 2 0 2 0 0 1 1 0 1 1 1 2 0 2 1 0 0 1 3 5 7 5 3 2 1 1 2 1 3 2 1 3 6 8 4 2 2 5 1 1 1 1 3 5 3 4 1 0 4 6 5 7 1 2 3 2 2 2 4 4 1 1 1 2 2 2 2 3 4
3 1 1 7 9 7 3 1 1 1 1 2 2 4 4 1 2 1 1 1 1 0 0 0 1 1 1 0 1 1 3 1 0 2 1 0 0 2 6 9 6 4 2 2 2 1 1 3 2 2 4 5 3 1 5 2 2 2 1 2 0 2 4 1 0 1 2 2 3 3 3 8 7 4 3 3 3 4 2 3 2 2 3 2 3 4 5 4
3 1 5 6 8 6 4 1 3 2 1 2 2 2 1 2 3 3 2 1 0 1 1 1 1 3 3 2 2 2 1 3 1 1 1 1 2 2 2 6 6 3 2 8 3 1 1 0 2 6 7 7 8 6 3 1 0 0 1 0 3 1 2 3 5 3 4 3 4 6 2 2 2 5 5 6 4 4 5 5 2 1 1 2 2 3 4 3
1 3 2 5 6 6 2 4 3 3 1 0 0 1 2 1 3 3 2 0 2 1 1 3 1 0 1 2 0 0 0 1 3 1 0 0 2 2 6 2 3 7 7 3 6 4 2 0 3 3 4 7 6 6 2 4 3 3 3 4 4 2 2 4 5 6 4 3 8 3 6 4 8 7 7 8 7 4 4 3 4 2 1 1 2 2 3 2
2 0 2 1 0 3 4 4 6 3 2 0 1 0 1 2 3 1 5 1 0 3 1 1 5 3 0 2 3 1 1 1 1 1 1 0 1 4 2 3 4 6 4 1 3 2 2 1 1 2 3 4 3 6 1 1 3 4 4 4 5 5 3 6 5 6 5 4 9 5 8 6 6 6 8 7 5 4 5 4 3 2 1 2 3 3 3 4
4 0 1 2 0 1 1 3 2 0 1 1 0 3 2 4 3 1 1 4 4 2 2 0 1 3 2 1 1 1 1 0 1 1 2 0 0 2 2 2 1 4 4 2 3 1 2 2 2 1 2 3 4 3 2 3 2 2 4 6 7 3 8 8 7 4 9 8 11 7 6 10 7 5 7 9 2 2 4 3 2 0 0 1 1 2 4 4
4 3 3 4 2 0 2 3 1 2 2 5 1 3 0 1 3 5 2 0 1 2 1 3 1 2 3 2 1 1 3 3 1 0 1 2 1 1 1 3 2 2 3 1 0 2 2 4 2 1 1 3 3 3 2 3 3 4 6 6 5 4 4 6 5 4 3 7 7 5 6 10 6 6 9 6 1 1 1 0 2 2 0 1 2 1 1 2
2 0 0 2 3 3 2 3 2 1 1 5 4 2 2 2 1 1 4 1 0 1 2 1 0 0 2 2 1 1 2 2 2 2 4 4 0 4 2 3 2 2 3 1 1 2 2 4 2 1 2 4 2 3 6 2 3 6 7 5 6 6 7 4 4 7 5 7 6 3 5 9 7 7 5 4 4 2 4 3 1 1 0 2 2 1 1 2
1 1 1 1 0 3 2 2 1 1 1 0 1 2 0 4 3 2 1 1 3 4 1 2 0 1 1 2 2 3 6 4 6 6 5 6 1 0 1 2 5 0 1 1 0 1 3 1 1 1 2 4 4 4 4 2 6 11 8 8 13 11 11 5 3 2 7 6 5 6 10 4 3 1 4 3 1 2 1 4 1 0 0 0 1 1 2 4
Wind_Direction
334 334 328 330 328 328 320 318 320 314 313 313 309 309 310 314 315 311 306 303 305 310 312 314 316 317 317 322 325 326 339 332 327 350 249 242 195 188 183 91 97 160 178 86 23 48 348 16 29 335 37 67 313 44 289 59 151 64 95 113 304 195 126 212 200 192 219 265 292 339 321 116 59 11 54 63 48 76 86 75 13 33 34 85 94 101 108 111
333 334 331 327 329 322 321 315 313 310 310 308 310 312 314 316 315 312 311 307 304 307 310 313 314 315 320 323 326 330 338 318 290 274 238 229 179 190 187 154 120 124 117 49 96 88 70 357 348 37 50 81 320 349 14 224 96 110 116 97 217 193 239 171 211 230 328 277 287 295 315 159 162 119 331 90 117 120 85 35 51 64 50 75 91 111 113 119
338 336 333 331 325 325 320 318 316 317 314 315 313 314 309 302 301 302 304 308 306 307 311 311 315 320 321 323 324 340 345 307 289 284 264 259 224 193 190 176 146 136 111 130 200 145 151 182 244 80 9 82 353 174 32 268 142 230 125 241 250 212 241 222 238 260 202 291 300 314 317 127 171 88 293 117 125 79 134 126 42 117 138 132 129 123 128 128
341 339 336 331 328 323 321 322 317 312 309 306 305 299 302 301 303 308 309 309 308 309 311 313 317 321 322 322 327 342 319 293 0 259 275 276 212 190 182 162 156 136 100 65 157 131 120 80 53 84 53 65 308 21 98 264 98 274 90 191 229 217 224 268 212 246 273 225 274 292 299 87 358 135 103 155 108 331 268 221 167 171 161 154 149 141 140 142
340 337 333 335 327 323 320 316 314 309 308 303 303 302 303 305 303 302 305 307 307 308 312 316 320 320 322 324 332 323 352 47 8 235 261 301 178 168 152 145 136 126 134 139 87 51 67 85 84 40 71 277 338 3 252 297 182 103 205 207 206 131 251 260 247 244 251 254 235 311 329 179 180 71 141 161 150 199 204 219 240 165 155 150 153 157 147 154
335 337 333 331 328 325 321 320 317 315 311 309 305 304 300 299 301 301 305 305 307 311 316 318 320 323 324 328 354 127 123 55 275 278 323 341 137 151 136 125 120 126 108 60 99 28 80 9 65 36 14 68 232 133 268 206 92 226 305 243 223 215 234 266 206 219 184 316 313 314 262 49 120 139 190 215 202 272 287 103 153 175 164 161 149 147 155 159
335 331 332 329 325 324 322 318 316 312 310 306 303 300 301 301 299 301 300 304 308 312 317 320 321 324 334 336 124 69 138 272 321 263 56 66 111 134 128 113 111 102 83 78 29 47 65 79 83 174 98 37 286 194 263 215 162 152 243 327 300 184 223 251 265 256 281 265 264 207 350 217 124 137 195 207 235 283 305 105 120 106 96 137 149 164 161 163
332 330 326 326 324 322 322 320 316 313 310 306 303 300 299 297 296 299 300 302 306 310 320 322 322 325 343 342 14 328 33 257 257 289 99 87 99 116 104 81 101 94 103 144 145 156 120 104 122 145 79 127 216 162 280 329 47 180 273 246 266 168 236 257 255 266 248 256 257 308 315 251 205 172 123 230 309 350 62 102 108 109 113 119 137 149 150 150
332 327 326 323 321 321 318 318 317 314 311 308 303 300 296 297 301 302 298 298 306 315 317 320 325 329 335 94 85 2 274 238 229 159 98 101 107 109 116 102 102 111 130 129 185 184 145 245 157 185 271 328 195 319 299 180 320 201 225 239 269 270 270 262 287 267 223 251 220 210 259 307 214 122 167 227 318 98 109 98 114 120 131 149 156 158 158 156
328 326 323 320 319 316 316 314 313 311 309 306 304 299 297 295 294 294 300 306 306 310 311 322 330 336 22 57 27 61 265 116 62 119 114 120 117 93 56 130 116 114 108 203 106 135 178 199 175 194 132 276 156 244 147 119 242 168 224 228 260 270 306 297 219 283 177 218 173 176 234 152 318 46 245 311 158 125 110 114 123 139 152 156 158 151 154 154
329 326 322 320 317 316 312 312 310 308 309 309 307 302 298 296 293 294 297 299 300 301 312 322 340 351 36 51 79 234 259 68 93 120 127 127 115 120 147 142 148 140 140 180 198 189 192 143 171 99 35 219 159 287 157 218 160 221 237 310 291 303 241 246 311 295 150 288 169 147 141 27 323 52 226 241 163 141 126 134 141 148 158 158 150 151 154 158
325 323 321 317 315 313 313 309 305 304 304 304 302 302 301 301 295 293 293 295 298 304 309 316 341 337 332 340 159 221 344 140 133 144 137 136 130 130 118 165 161 167 155 176 228 218 149 165 125 60 257 11 313 311 262 238 312 274 51 308 304 351 10 13 329 338 2 269 117 151 96 5 322 206 307 247 133 136 132 142 156 158 156 150 155 155 168 177
327 324 323 319 315 312 307 304 302 300 302 301 300 299 297 299 304 297 290 289 301 318 319 312 321 330 301 352 233 235 267 155 132 121 114 72 96 98 149 162 202 177 185 156 213 206 157 153 109 119 233 149 231 236 206 64 298 357 45 44 327 359 8 348 320 8 84 275 69 292 247 271 257 258 285 175 131 116 115 140 151 154 153 160 167 170 170 169
327 324 319 317 313 310 305 303 302 299 299 302 301 298 297 296 295 296 294 285 291 296 305 314 29 7 122 238 273 238 240 171 116 120 181 137 114 277 77 185 194 219 258 223 129 145 151 184 147 202 138 174 254 284 13 333 21 324 279 65 55 13 291 303 32 301 34 166 56 76 230 284 272 286 225 182 153 145 150 156 161 162 169 172 178 176 182 198
328 325 322 319 314 311 308 304 300 301 303 302 302 300 296 291 289 284 282 286 287 293 319 338 46 118 36 272 263 289 202 99 99 241 173 135 155 318 251 127 207 216 230 208 137 174 105 104 93 46 262 252 222 359 312 11 358 12 58 308 328 77 294 307 358 14 294 322 51 78 358 242 245 247 189 179 160 151 153 166 172 173 179 183 180 182 189 198
329 327 323 318 316 311 309 306 305 305 305 305 304 303 296 284 275 266 269 264 266 254 73 0 279 176 36 328 132 75 54 42 305 246 211 146 158 194 183 159 108 344 297 289 188 228 37 116 171 200 248 8 49 82 32 19 344 355 68 252 333 28 305 356 340 355 10 286 340 142 229 316 335 263 219 207 165 162 160 173 179 181 186 188 188 189 187 184
330 325 324 320 318 316 311 309 306 308 308 310 310 303 294 279 259 233 225 241 269 321 109 168 306 183 38 235 239 48 334 264 247 13 148 197 169 158 113 46 75 3 354 288 62 127 313 151 322 48 37 92 139 88 8 20 336 325 12 104 236 65 357 38 310 34 353 83 275 13 188 245 346 307 264 267 180 153 168 179 184 186 190 197 195 191 191 199
329 327 323 322 317 317 312 310 311 309 312 319 323 305 275 33 145 114 49 67 284 329 295 234 224 338 291 337 318 276 281 285 304 235 83 271 144 112 82 34 341 359 27 40 25 104 304 214 33 180 8 356 33 46 110 232 188 250 307 22 338 299 239 261 18 303 30 5 237 322 354 270 318 306 253 249 261 181 185 185 187 189 191 190 201 222 229 219
329 327 323 322 321 317 316 314 313 313 315 338 322 55 99 95 66 121 114 214 62 357 19 331 92 37 177 206 303 305 270 245 224 103 224 103 120 113 78 99 57 8 350 48 280 60 356 67 28 37 331 321 291 147 167 212 154 192 170 169 143 75 318 323 251 275 16 328 48 148 229 287 324 347 207 270 268 197 224 55 128 177 181 183 195 208 214 218
330 325 325 322 323 319 318 316 311 313 323 0 353 45 46 10 7 346 329 33 209 208 224 237 169 291 304 288 283 260 282 26 88 341 110 239 104 115 47 47 353 52 75 261 307 58 349 96 178 218 228 230 237 193 192 210 154 87 94 101 192 169 286 279 276 257 301 57 267 249 245 262 259 204 198 226 211 213 222 212 204 202 194 200 206 213 218 223
327 327 322 322 320 321 313 317 313 313 320 190 49 88 50 67 29 320 310 253 229 222 224 241 193 202 234 300 285 20 25 316 69 278 311 117 103 115 296 46 28 3 327 208 207 311 66 35 271 226 225 214 223 186 116 79 57 145 127 124 190 194 187 226 250 354 331 121 283 355 333 310 242 272 255 282 159 220 215 213 213 208 205 211 212 217 217 219
330 323 321 319 321 318 319 313 319 312 63 115 197 93 175 196 222 212 88 325 310 220 212 247 8 282 305 262 204 123 94 3 330 302 297 149 64 129 298 95 125 195 313 336 14 21 21 227 250 242 216 102 92 118 147 151 124 54 187 188 15 292 246 285 271 341 328 36 265 359 7 292 281 268 263 203 185 225 215 195 204 188 199 204 210 214 213 212
329 324 318 322 322 320 322 318 341 61 124 124 57 92 104 287 313 281 126 199 270 268 191 195 225 250 279 244 217 110 106 195 243 294 186 113 46 199 154 94 96 140 7 61 219 333 330 292 249 218 138 125 60 102 113 80 65 112 92 79 238 245 35 304 295 342 350 60 306 25 354 292 311 298 235 232 222 253 244 221 217 199 197 198 202 199 198 213
329 324 323 324 325 329 314 342 93 102 214 210 164 126 296 60 183 96 83 242 301 313 213 216 169 199 242 77 203 124 143 261 105 281 283 126 140 162 91 150 105 111 242 158 148 166 217 226 159 114 138 163 184 82 124 131 229 333 143 155 186 213 232 166 259 315 305 27 50 34 9 325 343 5 338 106 254 288 340 322 279 268 249 242 261 235 213 207
330 326 327 326 327 325 339 306 33 248 160 108 246 250 288 0 61 133 94 344 15 293 259 314 189 238 230 346 100 173 228 20 216 216 213 107 129 76 233 205 121 245 193 174 102 127 286 274 154 112 86 88 145 238 216 139 202 323 239 185 201 175 165 263 335 36 22 334 -0 61 336 306 298 288 235 287 352 11 319 199 234 237 237 220 209 213 215 228
332 328 329 328 327 335 302 345 314 164 56 293 52 351 329 7 74 126 97 74 342 268 346 306 122 329 59 15 83 169 65 279 230 219 175 201 139 144 60 46 112 261 183 133 174 189 210 342 59 203 132 94 140 191 239 157 173 99 268 197 177 139 120 126 75 75 5 47 308 35 178 266 325 328 300 318 326 289 287 236 257 264 234 213 220 224 213 217
330 328 327 331 336 326 352 10 231 110 34 312 300 323 336 331 159 98 24 358 38 293 328 246 58 237 103 252 154 86 35 263 296 46 63 278 166 21 136 257 9 26 145 164 39 274 31 299 56 43 82 87 94 310 246 147 113 230 240 122 122 110 131 190 152 151 204 237 306 39 99 180 303 293 264 313 341 313 322 308 259 236 258 219 235 234 225 223
330 327 328 330 341 343 154 335 16 19 215 259 321 331 321 248 104 51 79 70 319 284 10 307 223 271 123 258 151 166 213 264 20 283 190 264 103 356 123 212 173 187 167 96 245 257 157 300 354 28 70 92 207 211 189 155 135 219 179 134 147 157 186 139 117 135 318 324 278 332 330 281 255 267 310 19 354 329 309 293 308 276 171 233 242 240 233 227
328 326 322 323 341 338 69 150 119 230 258 290 310 315 346 73 88 99 108 102 285 55 215 63 294 81 332 355 177 355 335 0 98 261 322 55 35 145 92 251 144 136 32 143 208 279 274 201 242 154 134 278 232 239 160 172 186 275 134 78 74 70 67 111 103 99 3 69 270 274 233 220 283 276 329 335 22 286 269 279 273 321 319 301 282 257 241 235
323 321 318 302 320 351 315 0 214 237 323 305 305 0 60 51 34 41 13 232 333 36 91 256 37 278 16 95 316 1 320 310 181 319 26 145 324 46 53 137 134 97 212 6 220 220 259 302 172 127 196 205 156 0 168 73 94 111 92 72 23 44 34 27 61 96 74 28 255 241 279 176 280 264 226 230 232 244 308 300 299 334 331 322 306 292 278 241
322 317 313 185 148 228 145 352 265 260 284 320 347 55 76 42 116 97 103 227 14 281 7 7 292 9 37 15 342 308 105 336 339 8 280 330 329 35 87 334 45 47 34 356 309 322 346 352 162 249 31 80 115 71 33 107 113 132 57 120 54 345 11 39 347 39 93 277 259 289 212 130 176 295 313 238 293 293 256 278 312 320 318 313 304 294 288 264
321 314 284 177 234 15 162 283 248 275 348 359 54 60 81 261 12 103 213 322 69 289 73 294 314 35 355 331 57 343 316 339 351 20 275 7 71 164 168 169 173 23 341 333 291 354 326 247 252 319 237 164 116 99 318 28 18 72 79 47 120 264 39 320 4 271 210 203 265 338 130 74 240 223 259 320 326 331 302 247 279 303 310 311 305 294 308 301
322 308 257 201 253 269 242 234 26 356 21 43 65 50 56 95 229 272 302 324 249 197 308 155 280 6 323 61 336 330 315 66 321 28 22 327 145 286 275 75 205 168 246 265 303 19 279 290 334 280 336 99 122 136 256 53 347 108 155 136 84 114 44 241 284 221 302 293 258 228 303 245 251 295 250 273 305 311 327 0 358 307 288 309 309 335 349 349
324 299 145 204 204 232 254 276 331 346 34 40 73 24 45 60 241 201 290 240 260 344 344 32 341 10 46 102 319 1 20 282 30 321 41 294 38 344 326 9 105 46 83 168 258 183 11 337 309 91 242 306 123 166 178 172 158 211 131 147 186 144 163 248 193 214 220 206 297 283 85 234 115 213 325 277 290 317 334 331 312 291 289 291 305 16 24 9
330 71 177 309 253 255 247 265 259 111 77 65 51 85 127 242 228 202 251 295 283 324 293 359 75 69 346 14 323 352 87 298 14 3 19 47 329 91 333 345 339 103 117 112 259 72 223 208 255 245 238 343 151 184 127 96 64 143 161 83 86 234 143 229 204 154 207 205 10 209 213 182 149 273 274 299 1 358 344 345 324 357 341 342 32 20 15 14
30 316 143 326 342 283 342 212 117 74 84 53 76 49 160 195 356 184 274 187 345 60 293 11 76 59 313 315 317 29 321 100 324 62 338 38 227 5 274 219 345 164 139 163 205 195 17 313 281 321 43 67 345 308 329 113 194 254 107 180 207 159 110 83 87 27 97 51 260 166 325 299 298 36 30 2 355 315 335 331 16 24 17 40 36 17 10 14
16 332 42 324 329 329 346 148 121 78 61 88 90 269 208 284 202 170 288 331 278 119 65 70 305 94 312 304 268 335 315 45 340 57 314 306 357 332 335 317 199 23 180 154 294 185 150 246 299 90 7 5 358 40 78 16 142 92 150 240 155 114 117 131 214 357 58 178 257 38 213 209 85 235 294 122 301 311 331 356 7 39 32 49 27 17 8 8
353 0 273 30 333 336 45 13 53 49 77 79 142 238 206 56 187 191 288 353 13 32 94 102 275 93 267 152 312 245 306 86 302 48 292 327 110 295 9 339 314 50 345 248 150 307 122 325 300 330 251 281 344 25 5 353 50 151 192 197 114 272 263 322 88 273 234 264 272 312 288 268 189 232 159 205 200 105 18 351 26 33 30 33 24 19 14 16
65 84 52 289 349 358 335 73 69 71 61 56 245 39 254 233 245 70 306 224 129 120 179 235 169 302 134 158 232 298 292 73 265 83 47 301 94 8 63 213 314 6 2 111 57 252 42 192 296 306 156 307 350 63 246 294 330 15 50 25 5 100 161 117 192 176 123 254 61 291 42 237 214 219 195 165 200 196 326 1 39 27 20 9 15 11 22 30
18 26 321 304 342 341 343 79 59 44 72 273 217 224 209 260 293 283 322 39 322 99 250 143 224 260 278 225 147 113 317 136 149 231 100 270 117 13 27 340 331 319 43 10 130 26 336 91 226 273 304 338 264 353 214 154 70 339 30 336 0 34 212 103 51 121 184 178 179 201 306 278 271 216 160 164 190 203 195 107 45 30 3 352 349 356 13 34
338 96 271 310 345 340 55 46 50 52 110 233 160 252 327 348 341 289 314 334 21 285 169 203 159 186 208 113 288 210 100 23 100 164 195 322 119 281 13 12 308 327 353 20 49 2 66 54 199 312 6 319 244 245 180 171 161 176 166 209 169 122 171 223 266 24 89 123 220 135 241 271 268 195 210 163 205 197 226 149 116 36 17 351 341 350 356 28
59 358 278 324 341 19 79 20 30 240 95 149 162 165 295 338 27 302 338 332 67 326 21 108 121 144 141 203 188 160 139 203 230 84 268 159 5 114 291 19 285 264 70 63 281 271 135 161 83 266 224 238 227 267 285 221 136 186 135 254 141 138 110 103 181 267 26 253 119 163 127 274 245 234 214 204 202 234 235 235 38 11 2 337 333 329 334 6
49 231 262 317 344 49 67 57 313 34 110 245 300 291 244 307 193 297 12 341 349 75 353 32 201 99 252 175 199 156 165 244 163 212 183 119 152 231 284 305 283 37 77 330 36 312 112 49 24 302 311 300 319 324 37 61 107 83 20 74 106 163 178 178 174 180 148 69 113 16 231 245 282 285 244 184 250 260 265 219 263 329 334 337 352 351 351 9
240 263 323 307 2 77 78 230 306 319 291 325 28 281 263 218 71 354 5 305 83 327 31 273 314 171 149 53 115 177 204 300 268 122 21 106 137 214 338 15 7 62 66 258 105 260 50 299 124 10 1 343 339 348 9 336 52 83 125 324 71 65 69 122 97 39 145 226 167 144 238 274 271 342 330 7 2 346 314 318 146 334 331 331 9 5 5 355
288 290 256 302 349 48 116 182 138 164 333 335 344 336 342 346 226 211 211 279 324 193 118 304 236 267 32 95 59 69 31 158 286 330 123 108 224 319 340 24 360 75 30 212 239 102 131 211 116 225 228 256 276 287 272 284 265 304 304 321 341 94 128 34 230 34 155 272 140 169 247 254 271 317 329 311 333 298 302 305 298 219 243 301 350 2 12 13
25 345 307 335 12 25 66 49 90 124 77 357 9 281 151 306 330 319 130 261 169 48 94 264 334 69 46 36 25 21 11 354 87 276 58 335 308 323 304 345 30 12 2 56 53 105 152 79 143 159 169 202 209 220 250 115 65 260 262 344 249 64 60 90 105 100 196 212 198 231 164 4 287 283 290 288 291 322 322 325 313 311 337 324 304 345 359 352
165 62 355 333 343 39 67 14 30 36 66 133 215 324 352 305 267 305 4 184 11 116 30 48 312 22 275 78 196 76 282 317 350 92 27 179 256 241 308 286 317 4 6 28 5 85 65 349 258 163 199 203 198 211 210 181 221 258 247 261 261 253 158 143 152 219 183 93 271 237 201 204 244 251 262 278 286 300 281 256 281 302 264 312 330 333 345 3
56 328 89 198 114 300 23 334 28 352 319 119 234 24 26 8 4 13 327 32 34 20 95 332 31 37 198 168 129 126 351 26 6 178 0 188 350 327 26 10 59 327 5 27 353 98 130 183 263 122 268 266 248 250 245 299 212 233 219 232 247 221 170 190 225 199 142 187 238 236 189 205 246 232 239 240 227 255 251 254 239 244 288 11 23 23 13 10
109 269 133 304 330 260 175 281 329 52 347 0 250 38 11 45 347 254 215 318 17 344 36 196 312 338 10 357 112 165 174 62 304 341 166 258 32 347 353 343 208 351 55 31 18 134 86 254 214 169 276 323 301 250 272 196 280 300 247 240 245 201 211 210 224 201 187 222 227 227 185 226 220 223 223 233 193 215 274 303 323 93 56 11 48 39 16 353
12 28 318 3 86 35 295 5 38 54 75 337 65 340 81 14 341 338 327 94 341 318 33 93 233 294 341 36 100 109 224 177 193 229 245 136 335 168 240 200 252 333 41 53 93 323 111 271 105 125 31 281 280 293 205 198 181 252 252 245 251 240 244 229 233 245 218 279 276 261 230 255 255 222 245 264 39 249 347 341 247 237 233 137 114 75 357 317
294 208 174 26 9 312 340 19 27 74 50 350 57 304 9 321 19 348 275 243 127 346 4 355 172 87 34 40 45 328 308 183 175 210 187 152 260 227 137 288 151 316 357 12 80 302 65 265 50 72 292 292 268 268 279 305 229 238 253 255 238 227 242 217 203 208 168 225 241 244 274 261 269 247 258 288 301 212 184 204 251 30 60 148 123 103 324 307
342 289 55 119 276 350 15 335 5 55 37 274 4 285 340 281 316 336 337 352 60 57 352 318 193 100 339 48 29 332 318 259 231 221 190 210 188 215 221 173 149 168 237 184 268 191 179 143 204 163 260 247 242 236 266 325 348 289 261 222 225 221 219 224 259 183 211 199 230 233 241 219 226 203 183 254 161 169 211 237 232 300 248 206 136 340 325 317